Content
SEND FEEDBACK

Daily
Averages
Monthly
Summary
United States of America

BOSTON, MASSACHUSETTS


Home > North America > United States > Massachusetts
Elevation: 1 meter     Latitude: 42 22N     Longitude: 071 02W

WEATHER
 
SELECT A DAY
Number of Records: 203,113;   Date Range: 1/1/95 - 9/16/14
 
SHARE

PRINT THIS DATA

[ ← Previous Day ]
WEATHER ALMANAC - 16 JANUARY, 2013
[ Next Day → ]
[ °F ]   °C
Weather ElementAverageHighLow
Temperature0.3 °C2.2 °C (2:54 am)-1.1 °C (7:54 am)
Dewpoint-1.7 °C0 °C (12:54 pm)-5.6 °C (3:54 am)
Humidity87.4 %100 % (9:04 am)59 % (2:54 am)
Barometer1016.6 hPa1023.7 hPa (1:54 am)1010.5 hPa (4:54 pm)
Wind Speed9.8 km/h14.8 km/h (7:40 am)
Weather ElementAverage
Visibility6.6 km
Wind DirectionWSW (245.7 °)

Weather ElementTotal
Precipitation18.29 mm
Heating Degree Days17.8 (Base 18.3)
Averaged from 46 records on 16 January, 2013
WEATHER CONDITIONS BREAKOUT
WIND DIRECTION BREAKOUT
WEATHER BY HOUR - 16 JANUARY, 2013
[ °F ]   °C
Local TimeTemperatureDewpointHumidityBarometerVisibilityWind DirectionWind SpeedGust SpeedPrecipitationEventsConditions
1:54 AM1.7 °C-5 °C61 %1023.7 hPa16.1 kmNNE (20°)7.4 km/hOvercast
2:54 AM2.2 °C-5 °C59 %1023.4 hPa16.1 kmNorth (10°)7.4 km/hOvercast
3:54 AM1.7 °C-5.6 °C59 %1022 hPa16.1 kmNNE (20°)13 km/hOvercast
4:15 AM2 °C-5 °C60 %1021.7 hPa9.7 kmNE (40°)9.3 km/h0 mmSnowLight Snow
4:39 AM1 °C-4 °C70 %1021.7 hPa3.2 kmNE (40°)9.3 km/h0 mmSnowLight Snow
4:47 AM1 °C-4 °C70 %1021.7 hPa2.9 kmNNE (30°)7.4 km/h0 mmSnowLight Snow
4:54 AM0.6 °C-3.9 °C72 %1021.7 hPa2.9 kmNNE (30°)7.4 km/h0 mmSnowLight Snow
5:19 AM0 °C-3 °C80 %1021.3 hPa1.6 kmNorth (360°)5.6 km/h0.25 mmSnowLight Snow
5:28 AM0 °C-3 °C80 %1021 hPa1.6 kmNorth (360°)7.4 km/h0.51 mmSnowLight Snow
5:36 AM0 °C-2 °C87 %1021 hPa1.3 kmNorth (360°)7.4 km/h0.76 mmSnowLight Snow
5:45 AM0 °C-2 °C87 %1021 hPa1.6 kmNNW (340°)7.4 km/h1.02 mmSnowLight Snow
5:54 AM-0.6 °C-2.2 °C89 %1020.7 hPa1.6 kmNorth (350°)9.3 km/h1.52 mmSnowLight Snow
6:23 AM-1 °C-2 °C93 %1020.3 hPa1.6 kmNorth (350°)13 km/h0.76 mmSnowLight Snow
6:47 AM-1 °C-2 °C93 %1020 hPa1.6 kmNorth (350°)13 km/h1.78 mmSnowLight Snow
6:54 AM-0.6 °C-2.2 °C89 %1020 hPa1.6 kmNorth (350°)13 km/h2.03 mmSnowLight Snow
7:08 AM-1 °C-2 °C93 %1020.3 hPa1.6 kmNNW (340°)11.1 km/h0.25 mmSnowLight Snow
7:15 AM-1 °C-2 °C93 %1020.3 hPa1.6 kmNorth (350°)13 km/h0.51 mmSnowLight Snow
7:40 AM-1 °C-2 °C93 %1019.6 hPa0.8 kmNorth (350°)14.8 km/h1.27 mmFog-SnowSnow
7:54 AM-1.1 °C-2.2 °C92 %1019.6 hPa1.3 kmNorth (350°)13 km/h1.52 mmSnowLight Snow
7:59 AM-1 °C-2 °C93 %1019.6 hPa1.6 kmNorth (350°)11.1 km/h0.25 mmSnowLight Snow
8:10 AM-1 °C-2 °C93 %1019.3 hPa1.3 kmNorth (360°)7.4 km/h0.25 mmSnowLight Snow
8:54 AM-0.6 °C-1.7 °C92 %1019.3 hPa1.6 kmNorth (10°)5.6 km/h1.02 mmSnowLight Snow
9:04 AM-1 °C-1 °C100 %1019.3 hPa1.3 kmCalm0 mmSnowLight Snow
9:14 AM-1 °C-1 °C100 %1019 hPa1.3 kmNorth (360°)5.6 km/h0.51 mmSnowLight Snow
9:44 AM-1 °C-1 °C100 %1017.6 hPa1.6 kmNorth (10°)7.4 km/h0.76 mmSnowLight Snow
9:54 AM-0.6 °C-1.1 °C96 %1017.3 hPa1.6 kmNorth (10°)7.4 km/h0.76 mmSnowLight Snow
10:54 AM0 °C-0.6 °C96 %1014.9 hPa2.4 kmNorth (360°)13 km/h0.25 mmRain-SnowLight Rain
11:54 AM0.6 °C-0.6 °C92 %1013.9 hPa2.4 kmNorth (350°)14.8 km/h0.51 mmRainLight Rain
12:54 PM0.6 °C0 °C96 %1012.9 hPa2.4 kmNorth (360°)9.3 km/h0.51 mmRainLight Rain
1:54 PM0.6 °C-0.6 °C92 %1011.9 hPa2.4 kmNNW (340°)11.1 km/h1.02 mmRainLight Ice Pellets
2:54 PM0.6 °C-0.6 °C92 %1010.8 hPa2.4 kmNNW (340°)14.8 km/h0 mmRainLight Rain
3:54 PM0.6 °C-0.6 °C92 %1010.8 hPa2.4 kmNNW (340°)14.8 km/h0.25 mmLight Drizzle
4:54 PM0.6 °C-0.6 °C92 %1010.5 hPa2.4 kmNNW (330°)9.3 km/h0 mmOvercast
5:31 PM1 °C-1 °C87 %1011.2 hPa14.5 kmNW (310°)11.1 km/hOvercast
5:54 PM0.6 °C-0.6 °C92 %1011.2 hPa14.5 kmWNW (300°)13 km/hOvercast
6:54 PM0.6 °C-0.6 °C92 %1011.2 hPa16.1 kmWNW (300°)13 km/hOvercast
7:10 PM1 °C-1 °C87 %1010.8 hPa16.1 kmWNW (300°)9.3 km/hOvercast
7:54 PM0.6 °C-0.6 °C92 %1010.5 hPa16.1 kmWNW (300°)7.4 km/hOvercast
8:54 PM1.1 °C0 °C92 %1010.8 hPa14.5 kmWNW (290°)5.6 km/hOvercast
9:03 PM1 °C0 °C93 %1010.8 hPa14.5 kmSW (230°)5.6 km/hOvercast
9:10 PM1 °C0 °C93 %1010.5 hPa12.9 kmSSW (210°)9.3 km/hOvercast
9:26 PM1 °C-1 °C87 %1010.8 hPa12.9 kmWSW (240°)11.1 km/hOvercast
9:54 PM0.6 °C-0.6 °C92 %1010.5 hPa14.5 kmSW (220°)9.3 km/hOvercast
10:43 PM1 °C-1 °C87 %1011.2 hPa16.1 kmSW (230°)13 km/hOvercast
10:54 PM0.6 °C-0.6 °C92 %1010.5 hPa16.1 kmSW (220°)11.1 km/hOvercast
11:54 PM1.1 °C-0.6 °C89 %1010.8 hPa16.1 kmSW (230°)13 km/hOvercast
Hourly data recorded from KBOS, located 0 kilometers away from Boston, Massachusetts







STORIES FROM OUR PARTNERS